Location: ??
(35.5672°N, 139.6509°E)
Time: 11:21:40
(UTC+00:00)

Cosmos 2026 Rocket - Pass Details

Date: 03 August 2024
Orbit: 939 x 999 km, 82.9° (Epoch: 08 September)

Event Time Altitude Azimuth Distance (km) Brightness Sun altitude
Rises 16:33:25 0° 348° (NNW) 3,720 7.7 -31.5°
Reaches altitude 10° 16:35:59 10° 344° (NNW) 2,771 6.8 -31.3°
Enters shadow 16:41:01 49° 307° (NW) 1,269 4.5 -30.7°
